Location: ??????????
(54.8537°N, 38.8755°E)
Time: 19:48:12
(UTC+00:00)

Tiros 1 despin weight - Pass Details

Date: 20 September 2024
Orbit: 573 x 615 km, 48.2° (Epoch: 06 October)

Event Time Altitude Azimuth Distance (km) Brightness Sun altitude
Rises 01:14:36 0° 252° (WSW) 2,871 - -16.3°
Reaches altitude 10° 01:17:01 10° 243° (WSW) 1,972 - -16.0°
Exits shadow 01:19:24 26° 221° (SW) 1,226 ? -15.7°
Maximum altitude 01:21:09 36° 178° (S) 986 ? -15.5°
Drops below altitude 10° 01:25:20 10° 112° (ESE) 1,981 ? -14.9°
Sets 01:27:46 0° 104° (ESE) 2,887 ? -14.6°
